Date String (YYYY-MM-DD hh:mm:ss) UTC,Instrument flags,absolute air pressure of the measurement (hPa),sample flow rate (lpm),inlet stack bypass flow (lpm),air temperature of the measurement (°C),ambient temperature measured by the external sensor (°C),aerosol sample conditioner tube jacket temperature (°C),OPC LED temperature (°C),internal box temperature (°C),relative humidity of the measurement (%),span deviation,mass concentration of particles derived from Lorenz-Mie calculation of OPC scattering (μg/m³),mass concentration of particles derived from Lorenz-Mie calculation of OPC scattering (μg/m³),mass concentration of particles derived from Lorenz-Mie calculation of OPC scattering (μg/m³)
DateTimeUTC,F1_M11,P_M11,Q1_M11,Q2_M11,T1_M11,T2_M11,T3_M11,T4_M11,T5_M11,U1_M11,ZSPAN_M11,X0_M11,X2_M11,X1_M11
2023-08-31 07:00:00,SystemResetWarning,0828.4,5.00,000.00,025.7,022.3,000.0,033.9,026.8,21.3,0000.0,0008.01,0003.00,0002.43
2023-08-31 07:01:00,SystemResetWarning,0828.3,5.00,000.00,025.5,021.8,000.0,033.8,026.7,21.4,0000.0,0008.28,0003.01,0002.42
2023-08-31 07:02:00,SystemResetWarning,0828.4,5.01,000.00,025.5,022.0,000.0,033.8,026.7,21.3,0000.0,0008.21,0002.98,0002.41
2023-08-31 07:03:00,SystemResetWarning,0828.4,5.00,000.00,025.4,022.4,000.0,033.8,026.7,21.5,0000.0,0008.03,0002.92,0002.39
2023-08-31 07:04:00,SystemResetWarning,0828.4,4.99,000.00,025.4,022.9,000.0,033.8,026.9,22.4,0000.0,0008.08,0002.92,0002.38
2023-08-31 07:05:00,SystemResetWarning,0828.4,5.00,000.00,025.4,023.2,000.0,033.8,027.0,22.6,0000.0,0008.07,0002.90,0002.37
2023-08-31 07:06:00,SystemResetWarning,0828.4,5.01,000.00,025.5,023.6,000.0,033.8,027.1,22.5,0000.0,0008.14,0002.94,0002.36
2023-08-31 07:07:00,SystemResetWarning,0828.4,5.01,000.00,025.5,023.9,000.0,033.9,027.2,22.3,0000.0,0008.14,0002.95,0002.36
2023-08-31 07:08:00,SystemResetWarning,0828.4,5.00,000.00,025.6,024.2,000.0,033.9,027.3,21.8,0000.0,0007.73,0002.94,0002.36
2023-08-31 07:09:00,SystemResetWarning,0828.4,5.00,000.00,025.6,024.4,000.0,033.9,027.4,22.0,0000.0,0006.23,0002.94,0002.36
2023-08-31 07:10:00,SystemResetWarning,0828.4,5.00,000.00,025.7,024.6,000.0,033.9,027.5,21.9,0000.0,0005.30,0002.94,0002.37
2023-08-31 07:11:00,SystemResetWarning,0828.4,5.00,000.00,025.7,024.7,000.0,034.0,027.6,22.4,0000.0,0005.57,0002.90,0002.37
2023-08-31 07:12:00,SystemResetWarning,0828.4,5.00,000.00,025.8,024.9,000.0,034.0,027.6,22.8,0000.0,0005.31,0002.92,0002.37
2023-08-31 07:13:00,SystemResetWarning,0828.4,4.99,000.00,025.8,024.5,000.0,034.0,027.6,22.1,0000.0,0005.33,0002.92,0002.38
2023-08-31 07:14:00,SystemResetWarning,0828.4,4.98,000.00,025.7,022.9,000.0,033.9,027.0,21.7,0000.0,0006.20,0002.95,0002.38
2023-08-31 07:15:00,SystemResetWarning,0828.4,5.02,000.00,025.6,021.8,000.0,033.8,026.7,21.5,0000.0,0005.89,0002.95,0002.39
2023-08-31 07:16:00,SystemResetWarning,0828.4,5.00,000.00,025.5,021.9,000.0,033.8,026.7,21.4,0000.0,0006.53,0002.94,0002.37
2023-08-31 07:17:00,SystemResetWarning,0828.4,5.00,000.00,025.4,022.2,000.0,033.8,026.7,21.3,0000.0,0006.93,0002.91,0002.37
2023-08-31 07:18:00,SystemResetWarning,0828.4,5.00,000.00,025.4,022.6,000.0,033.8,026.8,21.1,0000.0,0007.12,0002.90,0002.36
2023-08-31 07:19:00,SystemResetWarning,0828.4,5.00,000.00,025.4,023.1,000.0,033.8,027.0,23.0,0000.0,0007.17,0002.92,0002.37
2023-08-31 07:20:00,SystemResetWarning,0828.4,5.00,000.00,025.5,023.4,000.0,033.8,027.1,22.8,0000.0,0007.14,0002.92,0002.36
2023-08-31 07:21:00,SystemResetWarning,0828.4,4.99,000.00,025.5,023.8,000.0,033.8,027.2,22.7,0000.0,0007.25,0002.95,0002.36
2023-08-31 07:22:00,SystemResetWarning,0828.4,5.00,000.00,025.6,024.0,000.0,033.9,027.3,22.1,0000.0,0007.06,0002.96,0002.36
2023-08-31 07:23:00,SystemResetWarning,0828.4,5.01,000.00,025.6,024.3,000.0,033.9,027.4,21.6,0000.0,0006.64,0002.96,0002.36
2023-08-31 07:24:00,SystemResetWarning,0828.4,5.01,000.00,025.7,024.5,000.0,033.9,027.4,21.5,0000.0,0006.68,0002.97,0002.36
2023-08-31 07:25:00,SystemResetWarning,0828.4,5.00,000.00,025.7,024.7,000.0,034.0,027.5,21.9,0000.0,0006.07,0002.98,0002.37
2023-08-31 07:26:00,SystemResetWarning,0828.5,5.00,000.00,025.8,024.8,000.0,034.0,027.6,21.3,0000.0,0005.73,0002.98,0002.38
2023-08-31 07:27:00,SystemResetWarning,0828.5,5.00,000.00,025.8,024.9,000.0,034.0,027.6,22.9,0000.0,0005.57,0003.02,0002.39
2023-08-31 07:28:00,SystemResetWarning,0828.5,4.99,000.00,025.8,024.5,000.0,034.0,027.5,23.4,0000.0,0005.32,0003.08,0002.40
2023-08-31 07:29:00,SystemResetWarning,0828.4,5.00,000.00,025.7,023.0,000.0,033.9,027.0,23.6,0000.0,0005.48,0003.10,0002.40
2023-08-31 07:30:00,SystemResetWarning,0828.4,5.00,000.00,025.7,022.6,000.0,033.9,027.0,23.8,0000.0,0005.51,0003.12,0002.41
2023-08-31 07:31:00,SystemResetWarning,0828.4,5.01,000.00,025.6,022.8,000.0,033.9,026.9,23.8,0000.0,0005.53,0003.13,0002.43
2023-08-31 07:32:00,SystemResetWarning,0828.4,5.01,000.00,025.6,023.1,000.0,033.9,027.0,23.9,0000.0,0006.06,0003.12,0002.43
2023-08-31 07:33:00,SystemResetWarning,0828.4,4.99,000.00,025.6,023.4,000.0,033.9,027.1,23.9,0000.0,0006.34,0003.14,0002.44
2023-08-31 07:34:00,SystemResetWarning,0828.4,5.00,000.00,025.6,023.8,000.0,034.0,027.3,23.9,0000.0,0006.25,0003.13,0002.44
2023-08-31 07:35:00,SystemResetWarning,0828.4,5.00,000.00,025.7,024.1,000.0,034.0,027.4,23.8,0000.0,0006.21,0003.13,0002.45
2023-08-31 07:36:00,SystemResetWarning,0828.4,5.00,000.00,025.7,024.3,000.0,034.0,027.4,23.8,0000.0,0006.17,0003.12,0002.45
2023-08-31 07:37:00,SystemResetWarning,0828.4,5.00,000.00,025.8,024.5,000.0,034.0,027.5,23.7,0000.0,0006.15,0003.13,0002.45
2023-08-31 07:38:00,SystemResetWarning,0828.4,5.00,000.00,025.8,024.7,000.0,034.1,027.6,23.0,0000.0,0005.80,0003.12,0002.46
2023-08-31 07:39:00,SystemResetWarning,0828.5,4.99,000.00,025.9,024.9,000.0,034.1,027.7,22.6,0000.0,0005.40,0003.09,0002.46
2023-08-31 07:40:00,SystemResetWarning,0828.5,4.99,000.00,025.9,024.7,000.0,034.1,027.6,23.4,0000.0,0005.36,0003.12,0002.48
2023-08-31 07:41:00,SystemResetWarning,0828.5,4.99,000.00,025.8,023.3,000.0,034.0,027.2,23.6,0000.0,0005.43,0003.12,0002.49
2023-08-31 07:42:00,SystemResetWarning,0828.4,5.00,000.00,025.7,022.6,000.0,034.0,027.0,22.8,0000.0,0005.49,0003.12,0002.49
2023-08-31 07:43:00,SystemResetWarning,0828.4,5.00,000.00,025.7,022.7,000.0,034.0,027.0,23.1,0000.0,0005.11,0003.11,0002.48
2023-08-31 07:44:00,SystemResetWarning,0828.4,5.01,000.00,025.6,023.0,000.0,034.0,027.0,23.4,0000.0,0004.71,0003.09,0002.49
2023-08-31 07:45:00,SystemResetWarning,0828.4,5.01,000.00,025.6,023.4,000.0,034.0,027.2,23.4,0000.0,0004.79,0003.11,0002.48
2023-08-31 07:46:00,SystemResetWarning,0828.4,4.99,000.00,025.7,023.7,000.0,034.0,027.3,23.3,0000.0,0004.82,0003.11,0002.48
2023-08-31 07:47:00,SystemResetWarning,0828.5,5.00,000.00,025.7,024.0,000.0,034.0,027.4,23.3,0000.0,0005.47,0003.10,0002.48
2023-08-31 07:48:00,SystemResetWarning,0828.4,5.00,000.00,025.7,024.3,000.0,034.1,027.5,22.8,0000.0,0006.07,0003.11,0002.48
2023-08-31 07:49:00,SystemResetWarning,0828.4,5.00,000.00,025.8,024.5,000.0,034.1,027.6,22.8,0000.0,0006.73,0003.10,0002.47
2023-08-31 07:50:00,SystemResetWarning,0828.5,5.00,000.00,025.8,024.7,000.0,034.1,027.6,23.5,0000.0,0006.65,0003.08,0002.47
2023-08-31 07:51:00,SystemResetWarning,0828.5,5.00,000.00,025.9,024.9,000.0,034.1,027.7,22.9,0000.0,0006.36,0003.02,0002.47
2023-08-31 07:52:00,SystemResetWarning,0828.5,5.00,000.00,025.9,024.9,000.0,034.2,027.7,22.1,0000.0,0006.28,0003.01,0002.46
2023-08-31 07:53:00,SystemResetWarning,0828.5,4.98,000.00,025.9,023.7,000.0,034.1,027.4,22.5,0000.0,0007.67,0003.01,0002.48
2023-08-31 07:54:00,SystemResetWarning,0828.4,5.01,000.00,025.8,022.1,000.0,034.0,026.9,22.6,0000.0,0007.67,0003.03,0002.48
2023-08-31 07:55:00,SystemResetWarning,0828.5,5.01,000.00,025.7,021.8,000.0,033.9,026.8,22.5,0000.0,0007.70,0003.05,0002.48
2023-08-31 07:56:00,SystemResetWarning,0828.5,5.01,000.00,025.6,022.0,000.0,033.9,026.7,23.0,0000.0,0007.73,0003.05,0002.48
2023-08-31 07:57:00,SystemResetWarning,0828.5,5.00,000.00,025.5,022.4,000.0,033.9,026.8,22.8,0000.0,0007.76,0003.07,0002.49
2023-08-31 07:58:00,SystemResetWarning,0828.5,5.00,000.00,025.5,022.8,000.0,034.0,027.0,22.4,0000.0,0007.33,0003.07,0002.51
2023-08-31 07:59:00,SystemResetWarning,0828.5,5.00,000.00,025.5,023.3,000.0,034.0,027.1,22.3,0000.0,0007.25,0003.05,0002.50
